Sitka, Alaska, United States (99835)
Lat: 57.05N, Lon: 135.33W
Wx Zone: AKZ023
Local Info
Past Weather Observations for Thursday, February 4, 2016

NOTE: This archive is for the closest National Weather Service station to Sitka. Information may differ from the station used for current weather conditions.

Click here for Long-term Archive

Time Weather Temperature Dewpoint Humidity Pressure Winds Precip Visibility
23:53
Overcast
39°F / 4°C 39°F / 4°C 100% 29.39 in
(995 mb)
NNE 3.5 mph
(NNE 6 kph)
0.00 in
(0.00 mm)
10SM
23:48
Overcast
41°F / 5°C 39°F / 4°C 93% 29.39 in
(995 mb)
NNE 3.5 mph
(NNE 6 kph)
0.00 in
(0.00 mm)
10SM
23:38
Overcast
Light Rain
39°F / 4°C 39°F / 4°C 100% 29.39 in
(995 mb)
NE 4.6 mph
(NE 7 kph)
0.00 in
(0.00 mm)
10SM
22:53
Overcast
43°F / 6°C 39°F / 4°C 87% 29.39 in
(995 mb)
NNW 4.6 mph
(NNW 7 kph)
0.02 in
(0.51 mm)
10SM
22:39
Overcast
Light Rain
41°F / 5°C 39°F / 4°C 93% 29.39 in
(995 mb)
NNW 4.6 mph
(NNW 7 kph)
0.02 in
(0.51 mm)
9SM
22:11
Overcast
43°F / 6°C 39°F / 4°C 87% 29.39 in
(995 mb)
NNW 8.1 mph
(NNW 13 kph)
0.01 in
(0.25 mm)
9SM
22:01
Overcast
Light Rain
41°F / 5°C 39°F / 4°C 93% 29.39 in
(995 mb)
Calm 0.01 in
(0.25 mm)
5SM
21:53
Overcast
Light Rain
41°F / 5°C 39°F / 4°C 93% 29.39 in
(995 mb)
SSW 3.5 mph
(SSW 6 kph)
0.01 in
(0.25 mm)
7SM
20:53
Overcast
41°F / 5°C 37°F / 3°C 87% 29.36 in
(994 mb)
ESE 9.2 mph
(ESE 15 kph)
- 10SM
19:53
Overcast
41°F / 5°C 39°F / 4°C 93% 29.36 in
(994 mb)
E 8.1 mph
(E 13 kph)
0.01 in
(0.25 mm)
10SM
18:53
Overcast
Light Rain
43°F / 6°C 39°F / 4°C 87% 29.39 in
(995 mb)
E 10.4 mph
(E 17 kph)
0.00 in
(0.00 mm)
10SM
17:53
Overcast
43°F / 6°C 39°F / 4°C 87% 29.39 in
(995 mb)
S 4.6 mph
(S 7 kph)
0.00 in
(0.00 mm)
10SM
16:53
Mostly Cloudy
43°F / 6°C 39°F / 4°C 87% 29.39 in
(995 mb)
SE 5.8 mph
(SE 9 kph)
- 10SM
15:53
Mostly Cloudy
43°F / 6°C 37°F / 3°C 81% 29.39 in
(995 mb)
E 10.4 mph
(E 17 kph)
- 10SM
14:53
Overcast
43°F / 6°C 39°F / 4°C 87% 29.39 in
(995 mb)
E 11.5 mph
(E 19 kph)
- 10SM
13:53
Overcast
Fog And Mist
43°F / 6°C 39°F / 4°C 87% 29.39 in
(995 mb)
E 13.8 mph
(E 22 kph)
0.09 in
(2.29 mm)
3SM
12:53
Overcast
Light Rain
43°F / 6°C 39°F / 4°C 87% 29.39 in
(995 mb)
S 6.9 mph
(S 11 kph)
0.08 in
(2.03 mm)
3SM
11:53
Overcast
Light Rain
45°F / 7°C 39°F / 4°C 81% 29.36 in
(994 mb)
ESE 19.6 mph
(ESE 32 kph)
0.02 in
(0.51 mm)
9SM
10:53
Overcast
Light Rain
45°F / 7°C 37°F / 3°C 76% 29.33 in
(993 mb)
ESE 28.8 mph
(ESE 46 kph)
0.01 in
(0.25 mm)
8SM
09:53
Overcast
Light Rain
45°F / 7°C 37°F / 3°C 76% 29.33 in
(993 mb)
ESE 26.5 mph
(ESE 43 kph)
0.04 in
(1.02 mm)
8SM
08:53
Overcast
Light Rain
45°F / 7°C 37°F / 3°C 76% 29.36 in
(994 mb)
ESE 23 mph
(ESE 37 kph)
0.03 in
(0.76 mm)
7SM
07:53
Overcast
Light Rain
45°F / 7°C 37°F / 3°C 76% 29.36 in
(994 mb)
SE 25.3 mph
(SE 41 kph)
0.03 in
(0.76 mm)
9SM
06:53
Overcast
Light Rain
45°F / 7°C 37°F / 3°C 76% 29.36 in
(994 mb)
SE 20.7 mph
(SE 33 kph)
0.00 in
(0.00 mm)
10SM
05:53
Overcast
Light Rain
45°F / 7°C 37°F / 3°C 76% 29.39 in
(995 mb)
SE 23 mph
(SE 37 kph)
0.01 in
(0.25 mm)
10SM
04:53
Overcast
Light Rain
45°F / 7°C 36°F / 2°C 71% 29.42 in
(996 mb)
SE 16.1 mph
(SE 26 kph)
0.00 in
(0.00 mm)
10SM
03:53
Overcast
Light Rain
45°F / 7°C 36°F / 2°C 71% 29.47 in
(998 mb)
SE 17.3 mph
(SE 28 kph)
0.00 in
(0.00 mm)
10SM
02:53
Overcast
Light Rain
45°F / 7°C 36°F / 2°C 71% 29.5 in
(999 mb)
SE 15 mph
(SE 24 kph)
0.00 in
(0.00 mm)
10SM
01:53
Overcast
43°F / 6°C 34°F / 1°C 71% 29.53 in
(1000 mb)
SE 15 mph
(SE 24 kph)
0.00 in
(0.00 mm)
10SM
00:53
Mostly Cloudy
Light Rain
43°F / 6°C 36°F / 2°C 76% 29.53 in
(1000 mb)
SE 12.7 mph
(SE 20 kph)
0.00 in
(0.00 mm)
10SM
Time Weather Temperature Dewpoint Humidity Pressure Winds Precip Visibility


Weather for websites

WeatherForYou.com, LLC is not responsible for any damages or problems caused by this service. Current weather conditions are obtained from the closest station including government and personal stations which may have varying degrees of accuracy. Weather forecasts are derived from the NOAA NDFD. Like all things, this site belongs to Jesus Christ... He just trusts us to maintain it. If you have any questions or comments email webmaster@weatherforyou.com

Copyright © 2016, WeatherForYou.com LLC. All rights reserved.